This demonstration page uses our WeatherBlox Daily Observations layout. Learn more.

Left ArrowRight Arrow

Hourly Observations for July 12, 2017

Temp ( °F °C ) Dew Point ( °F °C ) Humidity (%) Winds ( mph kmh ) Pressure ( in mb ) Visibility ( mi km ) Precip ( " mm )
12:51 am 00:51 Clear with Nearby Thunderstorms 86 30 59 15 40 40 SSW 12 19 29.62 1003 10 16 0.00 0.00
12:53 am 00:53 Clear with Nearby Thunderstorms 86 30 59 15 40 40 SSW 12 19 29.71 1006 10 16 0.00 0.00
1:53 am 01:53 Mostly Cloudy with Nearby Thunderstorms 85 29.4 60 15.6 43 43 WNW 9 15 29.75 1007 10 16 0.00 0.00
2:35 am 02:35 Mostly Cloudy with Thunderstorms 80 26.7 64 17.8 58 58 W 14 22 29.77 1008 8 13 0.01 0.25
2:46 am 02:46 Cloudy with Strong Thunderstorms 77 25 63 17 61 61 SE 15 24 29.77 1008 3 5 0.00 0.00
2:53 am 02:53 Cloudy with Thunderstorms 77 25 63 17.2 62 62 S 15 24 29.80 1009 3 5 0.28 7.11
3:25 am 03:25 Partly Cloudy with Nearby Thunderstorms 76 24.4 63 17.2 64 64 WNW 6 9 29.77 1008 10 16 0.13 3.30
3:53 am 03:53 Mostly Clear with Thunderstorms 73 22.8 67 19.4 81 81 S 10 17 29.76 1008 10 16 0.14 3.56
4:22 am 04:22 Partly Cloudy 75 23.9 65 18.3 71 71 Calm 29.74 1007 10 16 0.04 1.02
4:53 am 04:53 Mostly Clear 74 23.3 66 18.9 76 76 S 8 13 29.76 1008 10 16 0.04 1.02
5:07 am 05:07 Mostly Cloudy with Thunderstorms 74 23.3 65 18.3 74 74 S 6 9 29.77 1008 10 16 0.00 0.00
5:53 am 05:53 Mostly Cloudy 74 23.3 64 17.8 71 71 S 8 13 29.76 1008 10 16 0.01 0.25
6:21 am 06:21 Mostly Cloudy with Nearby Thunderstorms 74 23.3 63 17.2 69 69 S 8 13 29.77 1008 10 16 0.00 0.03
6:46 am 06:46 Partly Cloudy with Light Rain 72 22 64 18 78 78 W 8 13 29.77 1008 10 16 0.00 0.00
6:53 am 06:53 Partly Cloudy with Light Rain 75 23.9 64 17.8 69 69 S 10 17 29.78 1009 10 16 0.00 0.03
7:07 am 07:07 Partly Cloudy with Nearby Thunderstorms 73 22.8 64 17.8 74 74 SSW 6 9 29.77 1008 10 16 0.00 0.03
7:22 am 07:22 Partly Cloudy with Light Rain 72 22 64 18 78 78 S 5 7 29.77 1008 10 16 0.00 0.00
7:53 am 07:53 Partly Cloudy 73 22.8 65 18.3 76 76 WNW 5 7 29.80 1009 10 16 0.01 0.25
8:53 am 08:53 Sunny 74 23.3 67 19.4 79 79 NW 12 19 29.84 1010 10 16 0.00 0.00
9:53 am 09:53 Sunny 75 23.9 66 18.9 74 74 Calm 29.83 1010 10 16 0.00 0.00
10:53 am 10:53 Sunny 77 25 68 20 74 74 S 5 7 29.85 1011 10 16 0.00 0.00
11:53 am 11:53 Sunny 81 27.2 69 20.6 67 67 N 8 13 29.88 1012 10 16 0.00 0.00
12:53 pm 12:53 Sunny 79 26.1 68 20 69 69 N 7 11 29.89 1012 10 16 0.00 0.00
1:53 pm 13:53 Sunny 82 27.8 70 21.1 67 67 NNE 13 20 29.90 1012 10 16 0.00 0.00
2:53 pm 14:53 Mostly Sunny 84 28.9 74 23.3 72 72 NE 16 26 29.91 1013 10 16 0.00 0.00
3:06 pm 15:06 Mostly Cloudy 82 28 73 23 74 74 NE 16 26 29.85 1011 10 16 0.00 0.00
3:53 pm 15:53 Cloudy 82 27.8 68 20 63 63 NE 15 24 29.94 1014 10 16 0.00 0.00
4:34 pm 16:34 Partly Cloudy 82 27.8 69 20.6 65 65 NE 13 20 29.88 1012 10 16 0.00 0.00
4:53 pm 16:53 Sunny 82 27.8 69 20.6 65 65 NE 15 24 29.93 1014 10 16 0.00 0.00
5:53 pm 17:53 Mostly Sunny 80 26.7 68 20 67 67 ENE 15 24 29.94 1014 10 16 0.00 0.00
6:53 pm 18:53 Sunny 78 25.6 70 21.1 76 76 NE 12 19 29.93 1014 10 16 0.00 0.00
7:53 pm 19:53 Mostly Cloudy 77 25 69 20.6 77 77 NE 13 20 29.95 1014 10 16 0.00 0.00
8:53 pm 20:53 Mostly Sunny 74 23.3 68 20 82 82 NE 8 13 29.96 1015 10 16 0.00 0.00
9:53 pm 21:53 Mostly Cloudy 73 22.8 68 20 84 84 NE 7 11 29.98 1015 10 16 0.00 0.00
10:53 pm 22:53 Cloudy 73 22.8 64 17.8 74 74 ENE 12 19 30.01 1016 10 16 0.00 0.00
11:53 pm 23:53 Cloudy 72 22.2 64 17.8 76 76 NE 8 13 30.00 1016 10 16 0.00 0.03

Powered by AerisWeather